Weather Roundup
Issued by NWS

Home | Current Version | Previous Version | Text Only | Print | Product List | Glossary On
Versions: 1 2 3 4 5 6 7 8 9 10 11 12 13 14 15 16 17 18 19 20 21 22 23 24 25 26 27 28 29 30 31 32 33 34 35 36 37 38 39 40 41 42 43 44 45 46 47 48 49 50
000
NZUS93 KARX 202159
HRRWXR

CURRENT HOURLY OBSERVATIONS ACROSS
MUCH OF THE UPPER MISSISSIPPI VALLEY
NATIONAL WEATHER SERVICE LA CROSSE WI
500 PM CDT SUN APR 20 2014


...SOUTHEAST MINNESOTA...


CITY           SKY/WX    TMP DP  RH WIND       PRES   REMARKS
ROCHESTER      PTSUNNY   67  56  67 SW9       29.99F
ROCHESTER/MAYO CLOUDY    65  55  70 CALM      29.99F
WINONA           N/A    N/A N/A N/A MISG        N/A
AUSTIN         MOSUNNY   66  55  68 SE3       29.98F
ALBERT LEA     MOSUNNY   70  57  64 E5        29.96F
DODGE CENTER   PTSUNNY   70  55  60 S3        29.99F
PRESTON        MOSUNNY   66  54  64 S5        30.01F
OWATONNA       MOSUNNY   70  54  56 S5        29.97F
FARIBAULT      PTSUNNY   72  50  46 S5        29.97F
$$

...ELSEWHERE IN MINNESOTA...


CITY           SKY/WX    TMP DP  RH WIND       PRES   REMARKS
MINNEAPOLIS    MOSUNNY   73  42  32 VRB3      29.95F
INTNL FALLS    SUNNY     61  34  36 CALM      29.98F
DULUTH         SUNNY     65  28  24 NW7       29.99F
RED WING       SUNNY     72  52  49 S3        29.96F
REDWOOD FALLS  SUNNY     76  34  21 SE10      29.92F
MANKATO        SUNNY     72  54  53 SE6       29.95F
WORTHINGTON    MOSUNNY   77  46  33 S6        29.94S
FAIRMONT       MOSUNNY   75  52  43 S7        29.94F
$$

...SOUTHWEST WISCONSIN...


CITY           SKY/WX    TMP DP  RH WIND       PRES   REMARKS
LA CROSSE      PTSUNNY   62  54  74 E5        30.01F
PRAIRIE DU CHI LGT RAIN  63  55  75 CALM      29.99F
BOSCOBEL       LGT RAIN  63  57  81 NE3       30.00F
LONE ROCK      NOT AVBL
PLATTEVILLE    CLOUDY    76  46  35 N6        30.03F
FORT MC COY    CLOUDY    60  53  77 SW3       30.04S
CAMP DOUGLAS   CLOUDY    59  59 100 E2        30.03F
VIROQUA        MOCLDY    60  59  96 SE6       30.02F
WIS DELLS      DRIZZLE   59  53  82 CALM      30.04F
$$

...ELSEWHERE IN WISCONSIN...


CITY           SKY/WX    TMP DP  RH WIND       PRES   REMARKS
MILWAUKEE      PTSUNNY   71  41  33 SE12      30.06F
MADISON        CLOUDY    71  46  40 N6        30.03F
GREEN BAY      CLOUDY    57  49  74 S5        30.05F
EAU CLAIRE     NOT AVBL
BLACK RVR FLS  MOCLDY    61  55  79 SW3       30.02F
MEDFORD        CLOUDY    56  52  84 S7        30.03S
WAUSAU         CLOUDY    57  50  77 S7        30.02S
WIS RAPIDS     PTSUNNY   61  52  72 S7        30.05F
MARSHFIELD     CLOUDY    60  54  80 S8        30.02F
RICE LAKE      SUNNY     72  36  27 W3        29.98F
$$

...NORTHEAST IOWA...


CITY           SKY/WX    TMP DP  RH WIND       PRES   REMARKS
WATERLOO       CLOUDY    78  52  40 MISG      29.95F
DUBUQUE        PTSUNNY   76  48  37 SW9       30.02S
DECORAH        CLOUDY    61  57  88 CALM      30.00F
MASON CITY     PTSUNNY   68  57  68 E12       29.97S
CHARLES CITY   CLOUDY    64  57  77 E10       29.98F
OELWEIN        CLOUDY   N/A N/A N/A E9        29.99S
$$

...ELSEWHERE IN IOWA...


CITY           SKY/WX    TMP DP  RH WIND       PRES   REMARKS
DES MOINES     PTSUNNY   83  52  34 SW12G24   29.94F
IOWA CITY      PTSUNNY   81  47  30 SW13G22   30.00F
FORT DODGE     CLOUDY    81  55  41 SW10      29.91F
MARSHALLTOWN   PTSUNNY   79  53  40 S18G24    29.94F
CEDAR RAPIDS   PTSUNNY   80  46  30 S15       29.98F
$$

...NORTHERN ILLINOIS...


CITY           SKY/WX    TMP DP  RH WIND       PRES   REMARKS
CHICAGO-OHARE  PTSUNNY   78  39  24 S12       30.06F
DUPAGE         SUNNY     79  42  26 S15       30.06F
CHICAGO-MIDWAY MOSUNNY   78  40  25 SW13      30.07F
MOLINE         MOSUNNY   81  45  28 SW7       30.00F
ROCKFORD       PTSUNNY   80  39  23 S9G21     30.05F
STERLING       SUNNY     81  43  26 S9        30.02F
PEORIA         MOSUNNY   81  42  25 SW9       30.04F
$$

NOTE: "FAIR" INDICATES FEW OR NO CLOUDS BELOW 12,000 FEET WITH NO
SIGNIFICANT WEATHER AND/OR OBSTRUCTIONS TO VISIBILITY. WIND
SPEEDS ARE IN MILES-PER-HOUR.



USA.gov is the U.S. government's official web portal to all federal, state and local government web resources and services.